Simultaneous Nadir Overpasses (SNOs) Predictions

Prediction of SNOs between GOES-15 and NPP Satellite Orbit:

Table of predicted SNOs for the next 14.0 days since TLE Epoch: 6/24/2023
Index Date Time (GOES-15) GOES-15 Lat,Lon NPP Lat,Lon Distance(km) Time Diff (sec)
1 06/24/2023 12:32:37 -0.15,-164.84 0.28,-166.74 217.13 80
2 06/25/2023 12:16:34 -0.13,-165.22 -0.77,-162.22 340.76 80
3 06/27/2023 00:35:54 0.16,-165.80 -0.23,-167.58 201.97 80
4 06/28/2023 00:19:51 0.14,-166.18 0.83,-163.06 355.55 80
5 06/29/2023 12:39:02 -0.18,-166.75 0.19,-168.37 184.61 80
6 06/30/2023 12:22:58 -0.16,-167.13 -0.87,-163.85 372.10 80
7 07/02/2023 00:42:19 0.20,-167.69 -0.12,-169.21 172.81 80
8 07/03/2023 00:26:15 0.19,-168.06 0.94,-164.69 383.34 80
9 07/04/2023 12:45:27 -0.22,-168.61 0.07,-170.01 158.57 80
10 07/05/2023 12:29:23 -0.20,-168.97 -1.00,-165.49 397.16 80
11 07/07/2023 00:48:42 0.24,-169.53 -0.04,-170.84 148.90 80
